GW4405 Weather Reports


Display with metric or nautical units.
time (UTC)temp
F
wind
direction
speed
MPH
gust
MPH
rain 1hr
in
rain 24hr
in
rain mn
in
humidity
%
barometer
mb
20260506211514 86 66 2.0 3.0 0.00 0.00 0.00 63 1008.3
20260506211012 86 62 3.0 3.0 0.00 0.00 0.00 63 1008.3
20260506210508 86 40 3.0 4.0 0.00 0.00 0.00 63 1008.4
20260506210005 87 55 2.0 3.0 0.00 0.00 0.00 62 1008.3
20260506205501 87 170 3.0 3.0 0.00 0.00 0.00 62 1008.3
20260506204957 87 54 2.0 2.0 0.00 0.00 0.00 61 1008.5
20260506204456 88 5 4.0 8.0 0.00 0.00 0.00 59 1008.4
20260506203952 88 26 2.0 3.0 0.00 0.00 0.00 59 1008.5
20260506203450 88 293 4.0 4.0 0.00 0.00 0.00 58 1008.7
20260506202946 88 25 5.0 8.0 0.00 0.00 0.00 58 1008.7
20260506202444 89 32 6.0 10.0 0.00 0.00 0.00 57 1008.6
20260506201940 89 88 5.0 7.0 0.00 0.00 0.00 57 1008.7
20260506201438 89 59 6.0 8.0 0.00 0.00 0.00 56 1008.7
20260506200934 89 106 2.0 3.0 0.00 0.00 0.00 56 1008.8
20260506200430 89 37 5.0 8.0 0.00 0.00 0.00 56 1008.5
20260506195927 90 17 5.0 6.0 0.00 0.00 0.00 56 1008.7
20260506195424 90 12 2.0 3.0 0.00 0.00 0.00 55 1008.7
20260506194921 90 22 4.0 6.0 0.00 0.00 0.00 55 1008.5
20260506194418 90 28 6.0 9.0 0.00 0.00 0.00 55 1008.8
20260506193915 91 33 6.0 13.0 0.00 0.00 0.00 54 1008.7
20260506193412 91 32 3.0 4.0 0.00 0.00 0.00 54 1008.7
20260506192908 91 35 9.0 13.0 0.00 0.00 0.00 53 1008.7
20260506192405 91 330 6.0 7.0 0.00 0.00 0.00 53 1008.9
20260506191902 91 71 5.0 8.0 0.00 0.00 0.00 53 1008.8
20260506191358 91 359 10.0 11.0 0.00 0.00 0.00 52 1009.0
20260506190855 92 312 3.0 4.0 0.00 0.00 0.00 53 1008.9
20260506190352 91 44 3.0 3.0 0.00 0.00 0.00 53 1009.1
20260506185849 91 336 8.0 11.0 0.00 0.00 0.00 52 1009.1
20260506185346 91 325 4.0 4.0 0.00 0.00 0.00 52 1009.2
20260506184843 92 340 6.0 8.0 0.00 0.00 0.00 52 1009.5
20260506184340 92 19 3.0 3.0 0.00 0.00 0.00 52 1009.3
20260506183837 91 313 6.0 9.0 0.00 0.00 0.00 53 1009.4
20260506183332 92 8 9.0 11.0 0.00 0.00 0.00 52 1009.3
20260506182830 92 44 3.0 4.0 0.00 0.00 0.00 52 1009.4
20260506182327 92 24 4.0 6.0 0.00 0.00 0.00 53 1009.4
20260506181825 92 349 6.0 10.0 0.00 0.00 0.00 52 1009.5
20260506181322 92 41 4.0 6.0 0.00 0.00 0.00 53 1009.6
20260506180819 93 58 7.0 10.0 0.00 0.00 0.00 53 1009.5
20260506180315 93 358 5.0 6.0 0.00 0.00 0.00 53 1009.6
20260506175811 92 322 6.0 14.0 0.00 0.00 0.00 52 1009.8
20260506175308 92 64 6.0 10.0 0.00 0.00 0.00 53 1009.7
20260506174806 92 5 4.0 6.0 0.00 0.00 0.00 53 1010.0
20260506174303 92 61 3.0 4.0 0.00 0.00 0.00 53 1010.0
20260506173800 92 301 5.0 9.0 0.00 0.00 0.00 53 1009.9
20260506173257 92 55 5.0 7.0 0.00 0.00 0.00 53 1010.1
20260506172754 92 354 3.0 4.0 0.00 0.00 0.00 53 1010.2
20260506172250 92 343 8.0 10.0 0.00 0.00 0.00 55 1010.2
20260506171748 92 43 4.0 6.0 0.00 0.00 0.00 54 1010.3
20260506171245 92 38 4.0 9.0 0.00 0.00 0.00 52 1010.5
20260506170743 91 23 3.0 4.0 0.00 0.00 0.00 54 1010.5
20260506170239 91 40 6.0 10.0 0.00 0.00 0.00 54 1010.7
20260506165738 91 174 7.0 11.0 0.00 0.00 0.00 52 1010.6
20260506165234 91 12 6.0 7.0 0.00 0.00 0.00 54 1010.6
20260506164732 91 336 5.0 7.0 0.00 0.00 0.00 54 1010.8
20260506164228 91 47 7.0 10.0 0.00 0.00 0.00 54 1011.1
20260506163725 91 234 3.0 4.0 0.00 0.00 0.00 55 1011.0
20260506163220 91 20 10.0 11.0 0.00 0.00 0.00 54 1011.1
20260506162716 91 47 4.0 6.0 0.00 0.00 0.00 55 1011.2
20260506162214 91 48 6.0 8.0 0.00 0.00 0.00 54 1011.4
20260506161711 92 17 5.0 7.0 0.00 0.00 0.00 55 1011.5
20260506161208 90 25 6.0 13.0 0.00 0.00 0.00 55 1011.5
20260506160706 90 26 4.0 7.0 0.00 0.00 0.00 58 1011.7
20260506160202 91 23 3.0 6.0 0.00 0.00 0.00 57 1011.8
20260506155700 92 351 4.0 7.0 0.00 0.00 0.00 56 1011.9
20260506155157 91 56 3.0 4.0 0.00 0.00 0.00 56 1012.0
20260506153259 89 12 9.0 13.0 0.00 0.00 0.00 59 1012.7
20260506152756 89 356 7.0 9.0 0.00 0.00 0.00 59 1012.7
20260506152254 89 322 2.0 3.0 0.00 0.00 0.00 60 1012.9
20260506151752 89 36 2.0 3.0 0.00 0.00 0.00 60 1012.8
20260506151248 88 41 2.0 4.0 0.00 0.00 0.00 62 1012.9
20260506150745 88 317 3.0 4.0 0.00 0.00 0.00 61 1012.9
20260506150242 88 334 2.0 3.0 0.00 0.00 0.00 61 1012.9
20260506145739 87 55 6.0 8.0 0.00 0.00 0.00 61 1013.1
20260506145236 87 20 4.0 8.0 0.00 0.00 0.00 61 1013.1
20260506144733 88 95 2.0 4.0 0.00 0.00 0.00 61 1013.4
20260506144230 87 53 4.0 6.0 0.00 0.00 0.00 61 1013.4
20260506143728 87 18 1.0 2.0 0.00 0.00 0.00 60 1013.4
20260506143225 88 5 11.0 15.0 0.00 0.00 0.00 60 1013.5
20260506142724 87 17 7.0 9.0 0.00 0.00 0.00 62 1013.4
20260506142221 88 95 2.0 2.0 0.00 0.00 0.00 61 1013.5
20260506141719 86 63 1.0 1.0 0.00 0.00 0.00 62 1013.7
20260506141217 86 356 2.0 4.0 0.00 0.00 0.00 62 1013.7
20260506140714 86 316 4.0 6.0 0.00 0.00 0.00 63 1013.7
20260506140211 85 25 5.0 7.0 0.00 0.00 0.00 63 1013.9
20260506135708 85 86 3.0 4.0 0.00 0.00 0.00 64 1013.8
20260506135204 85 52 3.0 3.0 0.00 0.00 0.00 63 1013.9
20260506134701 84 51 2.0 2.0 0.00 0.00 0.00 65 1014.1
20260506134157 84 99 2.0 2.0 0.00 0.00 0.00 64 1014.0
20260506133654 85 14 3.0 4.0 0.00 0.00 0.00 63 1014.1
20260506133151 84 326 2.0 3.0 0.00 0.00 0.00 64 1014.1
20260506132649 83 56 5.0 8.0 0.00 0.00 0.00 66 1014.3
20260506132145 83 13 4.0 4.0 0.00 0.00 0.00 66 1014.1
20260506131643 83 48 3.0 3.0 0.00 0.00 0.00 65 1014.4
20260506131139 84 284 3.0 3.0 0.00 0.00 0.00 63 1014.3
20260506130636 84 27 3.0 7.0 0.00 0.00 0.00 63 1014.4
20260506130133 83 54 2.0 3.0 0.00 0.00 0.00 65 1014.5
20260506125631 83 58 2.0 2.0 0.00 0.00 0.00 65 1014.4
20260506125129 82 72 3.0 6.0 0.00 0.00 0.00 65 1014.4
20260506124626 82 352 6.0 9.0 0.00 0.00 0.00 66 1014.5
20260506124124 82 227 1.0 2.0 0.00 0.00 0.00 67 1014.5
20260506123622 81 31 4.0 6.0 0.00 0.00 0.00 68 1014.6
20260506123120 81 55 3.0 4.0 0.00 0.00 0.00 67 1014.5
20260506122616 81 2 2.0 3.0 0.00 0.00 0.00 67 1014.6
20260506122114 81 36 2.0 3.0 0.00 0.00 0.00 68 1014.6
20260506121612 80 86 2.0 3.0 0.00 0.00 0.00 69 1014.7
20260506121108 79 28 2.0 3.0 0.00 0.00 0.00 71 1014.4
20260506120606 79 58 2.0 4.0 0.00 0.00 0.00 71 1014.5
20260506115601 78 78 0.0 1.0 0.00 0.00 0.00 71 1014.4
20260506115059 78 144 1.0 2.0 0.00 0.00 0.00 73 1014.3
20260506114556 77 50 1.0 2.0 0.00 0.00 0.00 73 1014.5
20260506114054 77 341 4.0 6.0 0.00 0.00 0.00 73 1014.3
20260506113552 77 20 2.0 2.0 0.00 0.00 0.00 73 1014.3
20260506113049 78 146 1.0 1.0 0.00 0.00 0.00 72 1014.3
20260506112545 77 32 4.0 7.0 0.00 0.00 0.00 72 1014.4
20260506112043 77 28 2.0 2.0 0.00 0.00 0.00 72 1014.4
20260506111541 78 62 3.0 3.0 0.00 0.00 0.00 72 1014.3
20260506111038 77 73 1.0 2.0 0.00 0.00 0.00 72 1014.3
20260506110536 77 10 2.0 2.0 0.00 0.00 0.00 73 1014.0
20260506110033 77 271 2.0 2.0 0.00 0.00 0.00 72 1014.3
20260506105528 77 63 2.0 3.0 0.00 0.00 0.00 72 1014.3
20260506105026 77 6 2.0 3.0 0.00 0.00 0.00 72 1014.0
20260506104524 77 321 2.0 4.0 0.00 0.00 0.00 73 1014.1
20260506104016 76 52 0.0 1.0 0.00 0.00 0.00 73 1014.0
20260506103513 76 56 2.0 2.0 0.00 0.00 0.00 74 1014.0
20260506103010 76 90 1.0 2.0 0.00 0.00 0.00 74 1014.0
20260506102508 76 152 0.0 1.0 0.00 0.00 0.00 74 1014.3
20260506102005 76 30 2.0 2.0 0.00 0.00 0.00 73 1013.8
20260506101501 77 33 0.0 0.0 0.00 0.00 0.00 73 1014.0
20260506100959 76 13 7.0 8.0 0.00 0.00 0.00 72 1013.6
20260506100457 76 96 1.0 1.0 0.00 0.00 0.00 73 1013.6
20260506095955 77 63 2.0 2.0 0.00 0.00 0.00 73 1013.5
20260506095454 77 44 2.0 3.0 0.00 0.00 0.00 73 1013.5
20260506094949 77 60 4.0 4.0 0.00 0.00 0.00 72 1013.4
20260506094447 77 28 4.0 4.0 0.00 0.00 0.00 71 1013.3
20260506093944 78 12 4.0 4.0 0.00 0.00 0.00 70 1013.2
20260506093443 78 23 2.0 2.0 0.00 0.00 0.00 70 1013.0
20260506092940 77 23 2.0 2.0 0.00 0.00 0.00 70 1012.7
20260506092438 77 337 2.0 2.0 0.00 0.00 0.00 72 1013.0
20260506091934 77 100 2.0 3.0 0.00 0.00 0.00 73 1012.8
20260506091433 77 31 1.0 2.0 0.00 0.00 0.00 73 1012.7
20260506090930 76 27 3.0 4.0 0.00 0.00 0.00 74 1012.8
20260506090427 76 19 1.0 1.0 0.00 0.00 0.00 73 1012.4
20260506085924 76 36 0.0 1.0 0.00 0.00 0.00 76 1012.3
20260506085421 76 351 2.0 3.0 0.00 0.00 0.00 75 1012.4
20260506084917 76 292 0.0 1.0 0.00 0.00 0.00 75 1012.4
20260506084414 76 337 2.0 2.0 0.00 0.00 0.00 75 1012.3
20260506083909 76 66 1.0 2.0 0.00 0.00 0.00 74 1012.4
20260506083407 77 58 2.0 2.0 0.00 0.00 0.00 72 1012.2
20260506082904 77 120 1.0 2.0 0.00 0.00 0.00 71 1012.0
20260506082401 78 58 3.0 3.0 0.00 0.00 0.00 72 1012.1
20260506081857 77 204 2.0 3.0 0.00 0.00 0.00 72 1012.0
20260506081356 78 16 2.0 2.0 0.00 0.00 0.00 70 1012.3
20260506080853 77 359 1.0 2.0 0.00 0.00 0.00 72 1012.1
20260506080350 77 344 3.0 6.0 0.00 0.00 0.00 72 1011.9
20260506073333 78 318 3.0 3.0 0.00 0.00 0.00 70 1012.3
20260506072830 78 29 1.0 2.0 0.00 0.00 0.00 71 1012.2
20260506072328 77 18 2.0 4.0 0.00 0.00 0.00 71 1012.2
20260506071826 77 214 1.0 2.0 0.00 0.00 0.00 72 1012.3
20260506071323 77 101 2.0 2.0 0.00 0.00 0.00 73 1011.9
20260506070819 78 19 1.0 2.0 0.00 0.00 0.00 71 1012.0
20260506070316 77 26 2.0 3.0 0.00 0.00 0.00 72 1012.1
20260506062253 77 11 3.0 6.0 0.00 0.00 0.00 74 1012.4
20260506061749 77 80 2.0 2.0 0.00 0.00 0.00 74 1012.4
20260506061247 77 103 1.0 1.0 0.00 0.00 0.00 75 1012.4
20260506060745 77 45 3.0 7.0 0.00 0.00 0.00 73 1012.5
20260506060242 77 26 1.0 1.0 0.00 0.00 0.00 74 1012.2
20260506051214 78 38 4.0 6.0 0.00 0.00 0.00 72 1012.4
20260506050712 79 355 2.0 3.0 0.00 0.00 0.00 71 1012.1
20260506050209 78 28 2.0 3.0 0.00 0.00 0.00 72 1012.3
20260506044700 79 0 1.0 2.0 0.00 0.00 0.00 70 1012.4
20260506044157 78 320 1.0 1.0 0.00 0.00 0.00 72 1012.3
20260506043654 79 314 2.0 2.0 0.00 0.00 0.00 72 1012.2
20260506043152 78 30 3.0 4.0 0.00 0.00 0.00 72 1012.4
20260506042651 79 84 2.0 2.0 0.00 0.00 0.00 71 1012.3
20260506042148 79 310 1.0 1.0 0.00 0.00 0.00 72 1012.6
20260506041652 78 72 2.0 3.0 0.00 0.00 0.00 70 1012.4
20260506041143 78 102 2.0 2.0 0.00 0.00 0.00 73 1012.5
20260506040641 78 47 1.0 3.0 0.00 0.00 0.00 72 1012.3
20260506040137 79 39 1.0 1.0 0.00 0.00 0.00 72 1012.6
20260506035635 78 1 4.0 8.0 0.00 0.00 0.00 73 1012.6
20260506035131 79 6 2.0 3.0 0.00 0.00 0.00 72 1012.8
20260506034628 78 80 2.0 2.0 0.00 0.00 0.00 73 1012.6
20260506034125 79 67 1.0 2.0 0.00 0.00 0.00 72 1012.8
20260506033623 79 97 2.0 3.0 0.00 0.00 0.00 72 1012.6
20260506033119 78 38 1.0 2.0 0.00 0.00 0.00 72 1012.6
20260506032617 79 22 2.0 2.0 0.00 0.00 0.00 73 1012.5
20260506032113 78 142 3.0 3.0 0.00 0.00 0.00 72 1012.7
20260506031611 79 39 1.0 3.0 0.00 0.00 0.00 71 1012.6
20260506031107 78 77 3.0 4.0 0.00 0.00 0.00 73 1012.8
20260506030606 80 27 2.0 2.0 0.00 0.00 0.00 71 1012.9
20260506030103 79 69 1.0 2.0 0.00 0.00 0.00 72 1013.0
20260506025600 79 75 2.0 2.0 0.00 0.00 0.00 71 1013.1
20260506025055 79 35 2.0 2.0 0.00 0.00 0.00 72 1013.0
20260506024553 80 47 2.0 3.0 0.00 0.00 0.00 70 1012.9
20260506024049 80 36 2.0 3.0 0.00 0.00 0.00 72 1013.0
20260506023545 80 88 2.0 2.0 0.00 0.00 0.00 71 1013.2
20260506023043 80 24 2.0 6.0 0.00 0.00 0.00 71 1013.2
20260506022540 80 107 2.0 3.0 0.00 0.00 0.00 71 1013.2
20260506022038 80 16 1.0 1.0 0.00 0.00 0.00 72 1013.3
20260506021535 80 54 1.0 1.0 0.00 0.00 0.00 71 1013.2
20260506021032 80 63 1.0 1.0 0.00 0.00 0.00 71 1013.2
20260506020530 80 23 0.0 1.0 0.00 0.00 0.00 72 1013.2
20260506020027 80 352 2.0 3.0 0.00 0.00 0.00 71 1013.0
20260506015525 80 113 1.0 2.0 0.00 0.00 0.00 71 1013.0
20260506015021 80 123 0.0 0.0 0.00 0.00 0.00 72 1012.9
20260506014519 80 65 1.0 2.0 0.00 0.00 0.00 71 1013.0
20260506014014 80 85 0.0 0.0 0.00 0.00 0.00 72 1013.0
20260506013513 80 116 2.0 2.0 0.00 0.00 0.00 71 1013.1
20260506013009 81 66 1.0 2.0 0.00 0.00 0.00 70 1013.0
20260506012505 80 48 1.0 1.0 0.00 0.00 0.00 71 1013.1
20260506012002 80 25 1.0 1.0 0.00 0.00 0.00 70 1013.0
20260506011500 80 123 2.0 3.0 0.00 0.00 0.00 70 1013.0
20260506010956 81 70 3.0 3.0 0.00 0.00 0.00 68 1013.0
20260506010455 81 59 1.0 1.0 0.00 0.00 0.00 69 1013.0
20260506005951 80 12 2.0 2.0 0.00 0.00 0.00 70 1012.9
20260506005449 82 8 2.0 4.0 0.00 0.00 0.00 68 1012.9
20260506004943 81 52 2.0 2.0 0.00 0.00 0.00 69 1012.9
20260506004442 81 338 2.0 2.0 0.00 0.00 0.00 67 1012.9
20260506003938 81 48 1.0 2.0 0.00 0.00 0.00 68 1013.0
20260506003435 81 50 2.0 2.0 0.00 0.00 0.00 69 1012.9
20260506002931 82 357 3.0 3.0 0.00 0.00 0.00 67 1012.9
20260506002427 82 56 0.0 1.0 0.00 0.00 0.00 68 1012.7
20260506001922 81 60 2.0 2.0 0.00 0.00 0.00 68 1012.8
20260506001420 82 350 2.0 2.0 0.00 0.00 0.00 67 1012.7
20260506000917 82 74 2.0 2.0 0.00 0.00 0.00 68 1012.8
20260506000416 82 65 1.0 2.0 0.00 0.00 0.00 67 1012.8
20260505235911 81 63 2.0 2.0 0.00 0.00 0.00 70 1012.7
20260505235409 82 62 1.0 2.0 0.00 0.00 0.00 68 1012.7
20260505234906 82 42 2.0 2.0 0.00 0.00 0.00 70 1012.6
20260505234403 82 30 1.0 2.0 0.00 0.00 0.00 69 1012.5
20260505233900 82 18 1.0 2.0 0.00 0.00 0.00 69 1012.6
20260505233358 82 64 2.0 2.0 0.00 0.00 0.00 68 1012.5
20260505232855 83 342 2.0 2.0 0.00 0.00 0.00 69 1012.5
20260505232353 82 114 1.0 1.0 0.00 0.00 0.00 69 1012.3
20260505231849 83 123 0.0 1.0 0.00 0.00 0.00 69 1012.3
20260505231347 83 14 1.0 2.0 0.00 0.00 0.00 69 1012.5
20260505230845 83 49 1.0 2.0 0.00 0.00 0.00 69 1012.3
20260505230342 83 59 2.0 2.0 0.00 0.00 0.00 68 1012.5
20260505225838 84 77 2.0 3.0 0.00 0.00 0.00 68 1012.4
20260505225336 83 313 1.0 2.0 0.00 0.00 0.00 68 1012.4
20260505224830 84 91 2.0 2.0 0.00 0.00 0.00 68 1012.3
20260505224329 83 95 2.0 2.0 0.00 0.00 0.00 69 1012.3
20260505223825 82 75 0.0 0.0 0.00 0.00 0.00 70 1012.2
20260505223323 82 79 2.0 2.0 0.00 0.00 0.00 70 1012.3
20260505222818 83 91 2.0 2.0 0.00 0.00 0.00 70 1012.3
20260505222314 83 75 1.0 1.0 0.00 0.00 0.00 69 1012.1
20260505221812 83 29 2.0 2.0 0.00 0.00 0.00 69 1012.2
20260505221308 83 68 1.0 1.0 0.00 0.00 0.00 69 1012.3
20260505220806 83 57 1.0 1.0 0.00 0.00 0.00 69 1011.9
20260505220303 84 46 1.0 2.0 0.00 0.00 0.00 68 1011.9
20260505215801 83 163 1.0 2.0 0.00 0.00 0.00 69 1012.2
20260505215258 84 26 2.0 3.0 0.00 0.00 0.00 67 1012.0
20260505214756 84 102 1.0 2.0 0.00 0.00 0.00 68 1011.8
20260505214253 84 29 3.0 4.0 0.00 0.00 0.00 68 1011.9
20260505213750 84 61 2.0 2.0 0.00 0.00 0.00 67 1011.8
20260505213248 85 198 1.0 1.0 0.00 0.00 0.00 67 1011.8
20260505212743 84 22 2.0 2.0 0.00 0.00 0.00 67 1011.8
20260505212241 85 44 1.0 2.0 0.00 0.00 0.00 66 1011.8
20260505211737 85 77 3.0 3.0 0.00 0.00 0.00 65 1011.7